IMS-1

导读

IMS-1(Indian Mini Satellite-1)是印度空间研究组织(ISRO)开发的小型遥感卫星,于2008年4月28日作为PSLV-C9任务的辅助载荷发射升空。卫星起飞重量83千克,采用微型化子系统,搭载多光谱相机和超光谱相机两个有效载荷,工作在可见近红外波段,多光谱相机空间分辨率37米,超光谱相机分辨率约506米,设计寿命两年,数据将开放给发展中国家航天机构和学生,推动卫星数据应用能力建设。

基本信息
目录编号:
32786
目录名称:
IMS-1
国际标识:
2008-021D
轨道中心:
EARTH
卫星名称:
IMS-1
卫星全名:
--
卫星状态:
在轨 (已飞行6703 天)
发射日期:
2008-04-28 UTC
国别 :
印度 (IN)
星等 :
--
轨道信息
数据来源 国际轨道数据
星历时间: 2026-09-04T04:52:07+0800
22小时前
查看轨道信息
半长轴: 6929.851km
偏心率: 0.0004283
轨道倾角: 97.954°
近地点辐角 169.723°
升交点赤经 235.579°
平近点角 190.409°
近地点: 548.745km
远地点: 554.683km
周期: 95.685分钟
每日圈数: 15.049322
详细信息
使用方式:
暂无
2D轨道图
3D轨道图
轨道高度分析图
轨道倾角分析图
轨道综合分析图
查看轨道综合分析图